World > North America > United States > North Dakota

Tioga, North Dakota Regional Weather

Lat: 48.40N, Lon: 102.94W
Wx Zone: NDZ009
Feedback

Tioga, ND Regional Weather

Expires:201910141400;;695822
ASUS43 KBIS 141310
RWRND 

NORTH DAKOTA REGIONAL WEATHER ROUNDUP
NATIONAL WEATHER SERVICE BISMARCK ND
800 AM CDT MON OCT 14 2019

NOTE: "FAIR" INDICATES FEW OR NO CLOUDS BELOW 12,000 FEET WITH NO
SIGNIFICANT WEATHER AND/OR OBSTRUCTIONS TO VISIBILITY.



NDZ001>003-009>011-017-141400-
NORTHWEST NORTH DAKOTA
  
CITY           SKY/WX    TMP DP  RH WIND       PRES   REMARKS
WILLISTON      SUNNY     36  21  55 SE6       29.76F                  
MINOT          CLEAR     30  28  92 SE5       29.82R                  
MINOT AFB      CLOUDY    29  28  93 CALM      29.80S                  
$$
 

SKY/WX - Weather  TMP - Temperature  DP - Dew Point  RH - Relative Humidity
WIND - Wind Direction/Speed PRES - Barometric Pressure VSB - Visibility
WCI - Wind Chill Index E13G22 Wind - East Wind 13 mph/Gusts of 22 mph